Powrót do katalogu

FENGYUN 1C DEB

AktywnySSO
NORAD 29873·DEBRIS·🇨🇳 China

Wystrzelony May 10, 1999 z Taiyuan Satellite Launch Center

Loading…

Następne Przeloty (najbliższe 24 godziny)

TLE

ŚwieżeSource: Space-Track

Epoka: Sep 14, 2026, 22:24 UTC

1 29873U 99025FT  26257.93351484  .00000694  00000-0  49930-3 0  9990
2 29873  99.4088 130.5923 0092235 167.1699 209.8059 13.98403153  1755

Śledź FENGYUN 1C DEB w czasie rzeczywistym z AllMySat

Download on the App Store